STARLINK-3161, 49422

Orbit data source: Space-Track

STARLINK-3161, 49422 is a payload satellite owned by SpaceX/Seattle (US) in LEO that was launched on Sat, 13 Nov 2021 UTC via an FALCON 9 launch vehicle from the Air Force Eastern Test Range (AFETR). Payload-class satellites include a variety of spacecraft equipped with specific instruments for various scientific and technological missions. These include communications satellites like Starlink; space stations such as the ISS; scientific satellites like the Hubble; Earth observation satellites from companies like Planet Labs, Umbra, and HawkEye 360; GPS; miniature CubeSats for education and research; and military/defense satellites.

Loading next visibility...
Identifier
49422, 2021-104Q
Orbit
LEO
Country
Flag of USUS
Related business
Manufacturer
SpaceX/Seattle
Mission
Operational Commercial Communications
Bus & Motor
STARLINK, Unknown motor
Mass
290 kg wet, ~270 kg dry
Launch date (UTC)
2021-11-13 (5 years ago)
Launch vehicle
FALCON 9
Launch site
Air Force Eastern Test Range (AFETR)
Object type
Payload
Rocket body
Debris
Shape & HBR
Box + 1 Pan, 10.1 m
Radar Cross Section
13.562 m², Large (>1 m²)

Expand to show TLE details & history
Last TLE update: 1 week ago

TLE from 1 week ago
0 STARLINK-3161
1 49422U 21104Q   26154.30981023  .00001291  00000-0  99184-4 0  9991
2 49422  53.1912 205.0544 0001688  89.7860 270.3325 15.08849875251549
Epoch: 2026-06-03T07:26Z
TLE epoch observation values (Epoch: 2026-06-03T07:26:07.603Z)
Latitude
-0.00006°
Longitude
-158.2476°
Altitude
540.601 km
Speed
7.593 km/s
True Right ascension
13h 40m 13s
True Declination
0° 00' 00"
Sunlit
Object was in full shadow at epoch
Visualization orbit readout
Latitude
Unknown
Longitude
Unknown
Altitude
Unknown
Speed
Unknown
Apparent Right ascension
Unknown
Apparent Declination
Unknown
Sunlit
N/A
Visualization observer readout
Local Sidereal Time
13:26:31
Azimuth
Unknown
Elevation
Unknown
Doppler factor
Unknown
Orbital elements
Apogee altitude
541.13 km
Perigee altitude
538.795 km
Semi-major axis
6,918.099 km
Eccentricity
0.00017
Inclination
53.1912°
RAAN
205.0544°
Arg. of periapsis
89.786°
True anomaly
270.31316°
Mean anomaly
270.3325°
Eccentric anomaly
270.32283°
Mean motion
3.77192 °/min
Orbital period
95.44 mins
BSTAR
0.000099184
Loading maneuver chart data...
Computing Atmospheric mass density...
Loading historical data...
Loading historical data...
Loading historical data...
Loading historical data...
Loading historical data...
Loading historical data...
Loading historical data...

Documentation

Showing up to 5 results
|